Вернуться в каталог

STARLINK-5224

АктивенСвязьVLEO
NORAD 55397·PAYLOAD·🇺🇸 United States

Запущен Jan 31, 2023 с Vandenberg Space Force Base

Loading…

Ближайшие Пролёты (ближайшие 24 часа)

TLE

СвежийSource: CelesTrak SupGP

Эпоха: Sep 15, 2026, 02:21 UTC

1 55397C 23014G   26258.09840278  .00734620  00000+0  58716-1 0  2587
2 55397  69.9995 287.0386 0003133 267.1993 183.9712 14.99784202    17

Отслеживайте STARLINK-5224 в реальном времени с AllMySat

Download on the App Store